CST,Max TemperatureF,Mean TemperatureF,Min TemperatureF,Max Dew PointF,MeanDew PointF,Min DewpointF,Max Humidity, Mean Humidity, Min Humidity, Max Sea Level PressureIn, Mean Sea Level PressureIn, Min Sea Level PressureIn, Max VisibilityMiles, Mean VisibilityMiles, Min VisibilityMiles, Max Wind SpeedMPH, Mean Wind SpeedMPH, Max Gust SpeedMPH,PrecipitationIn, CloudCover, Events, WindDirDegrees
2010-11-1,51,40,28,34,29,23,87,70,38,30.42,30.37,30.31,10,10,10,10,6,,0.00,0,,106
2010-11-2,53,42,30,36,31,28,100,71,38,30.43,30.36,30.21,10,10,7,13,6,16,0.00,0,,147
2010-11-3,55,44,33,41,33,30,93,64,38,30.16,30.05,29.96,10,10,10,29,12,38,0.00,2,Rain,285
2010-11-4,44,40,35,36,29,18,93,67,34,30.08,30.03,30.01,10,10,10,31,17,37,0.00,1,,336
2010-11-5,44,34,23,21,18,12,86,60,29,30.17,30.13,30.10,10,10,7,17,10,23,0.00,0,,334
2010-11-6,53,38,23,23,19,18,80,52,26,30.25,30.19,30.11,10,10,10,23,9,28,0.00,0,,178
2010-11-7,64,48,33,36,30,25,75,53,30,30.11,30.02,29.93,10,10,10,14,11,17,0.00,0,,171
2010-11-8,64,52,41,37,35,32,76,54,34,29.90,29.80,29.74,10,10,10,18,12,25,0.00,0,,166
2010-11-9,68,54,41,48,43,36,87,67,46,29.84,29.80,29.78,10,10,10,21,10,26,0.00,0,,144
2010-11-10,68,57,46,55,47,43,88,75,52,29.96,29.87,29.82,10,10,7,22,13,31,0.07,2,Rain,148
2010-11-11,51,42,32,37,33,30,100,77,47,30.41,30.31,30.10,10,10,7,10,5,,0.00,0,,287
2010-11-12,39,36,33,36,35,32,100,91,81,30.42,30.35,30.23,10,9,4,21,11,26,0.74,7,Rain,38
2010-11-13,42,37,32,41,37,32,100,96,93,30.05,29.78,29.68,10,5,2,29,19,36,0.38,8,Rain,85
2010-11-14,33,32,32,32,32,32,100,95,93,29.86,29.82,29.79,10,9,3,18,14,24,0.00,8,Rain-Snow,267
2010-11-15,46,38,30,41,33,28,100,88,71,29.77,29.74,29.72,10,9,7,10,7,,0.00,2,,183
2010-11-16,41,34,28,37,34,28,100,93,81,29.76,29.69,29.63,10,5,0,8,2,,0.01,8,Fog-Rain,259
2010-11-17,37,34,32,36,32,28,100,90,81,30.24,30.06,29.80,10,8,2,17,12,23,0.00,6,,333
2010-11-18,33,32,30,30,27,23,93,83,75,30.36,30.30,30.21,10,10,10,15,9,18,0.00,8,,290
2010-11-19,39,34,30,36,31,25,100,89,80,30.11,29.96,29.87,10,8,5,24,16,32,0.00,3,,243
2010-11-20,33,28,23,21,18,14,86,67,48,30.27,30.19,30.08,10,10,10,18,12,25,0.00,2,,54
2010-11-21,46,39,32,46,36,28,100,95,87,30.01,29.80,29.67,10,4,0,20,13,24,0.04,8,Fog-Rain,154
2010-11-22,33,28,23,34,30,19,100,96,86,29.94,29.76,29.66,10,5,1,22,10,29,0.03,8,Rain,344
2010-11-23,26,20,14,19,16,10,93,83,74,30.25,30.18,29.99,10,10,7,20,12,26,0.00,1,Snow,296
2010-11-24,32,26,21,32,26,18,100,90,80,30.17,29.85,29.65,10,7,2,29,16,39,0.07,7,Rain-Snow,129
2010-11-25,32,23,14,30,16,10,100,90,79,29.90,29.84,29.72,10,10,2,21,11,26,0.00,3,Snow,291
2010-11-26,30,22,14,27,18,10,86,84,79,29.92,29.85,29.82,10,10,10,22,13,29,0.00,4,Snow,278
2010-11-27,32,23,14,28,20,10,93,83,59,30.11,30.05,29.96,10,10,10,16,9,22,0.00,0,,277
2010-11-28,46,36,26,34,29,25,93,77,57,30.00,29.87,29.72,10,10,10,22,14,31,0.00,0,,146
2010-11-29,42,38,35,41,36,32,100,88,76,29.77,29.65,29.53,10,8,1,18,15,24,0.44,7,Rain,144
2010-11-30,30,24,19,28,21,16,100,91,86,29.85,29.69,29.55,10,9,2,29,20,38,0.00,8,Snow,297